OBJECT W, 57186

Orbit data source: Space-Track

You're viewing an uncataloged RSO

Recently launched and/or uncataloged RSOs may have evolving metadata. Metadata may include the following, but is not limited to: Owner, Manufacturer, Bus, Motor, and Mission.

OBJECT W, 57186 is a satellite in SSO that was launched on Tue, 27 Jun 2023 UTC via a SOYUZ-2-1B launch vehicle from the Vostochny Cosmodrome (VOSTO). Unknown objects in Earth's orbit typically refer to objects detected orbiting the Earth but have not yet been identified or cataloged. These objects could be anything from previously untracked satellites, spent rocket stages, debris from satellite collisions, or even natural meteoroids temporarily captured by Earth's gravity.

Loading next visibility...
Identifier
57186, 2023-091W
Orbit
SSO
Country
Flag of TBDTBD
Related business
Flag of RUOOO Special Technological Center (RU)
Manufacturer
STTS/SPBPU
Mission
Operational Commercial Technology
Bus & Motor
CUBESAT 3U, Unknown motor
Mass
3 kg wet, 3 kg dry
Launch date (UTC)
2023-06-27 (3 years ago)
Launch vehicle
SOYUZ-2-1B
Launch site
Vostochny Cosmodrome (VOSTO)
Object type
Unknown
Shape & HBR
Box, 0.2 m
Radar Cross Section
0.035 m², Medium (>0.1 m² and < 1m²)

Expand to show TLE details & history
Last TLE update: 8 hours ago

TLE from 8 hours ago
0 OBJECT W
1 57186U 23091W   26256.95141627  .00007384  00000-0  25453-3 0  9992
2 57186  97.5063 324.1252 0018784 136.0663 224.2075 15.30143887178021
Epoch: 2026-09-13T22:50Z
TLE epoch observation values (Epoch: 2026-09-13T22:50:02.365Z)
Latitude
-0.00001°
Longitude
-11.32335°
Altitude
487.726 km
Speed
7.616 km/s
True Right ascension
21h 36m 30s
True Declination
0° 00' 00"
Sunlit
Object was in full shadow at epoch
Visualization orbit readout
Latitude
Unknown
Longitude
Unknown
Altitude
Unknown
Speed
Unknown
Apparent Right ascension
Unknown
Apparent Declination
Unknown
Sunlit
N/A
Visualization observer readout
Local Sidereal Time
23:28:19
Azimuth
Unknown
Elevation
Unknown
Doppler factor
Unknown
Orbital elements
Apogee altitude
485.207 km
Perigee altitude
459.471 km
Semi-major axis
6,850.476 km
Eccentricity
0.00188
Inclination
97.5063°
RAAN
324.1252°
Arg. of periapsis
136.0663°
True anomaly
224.05767°
Mean anomaly
224.2075°
Eccentric anomaly
224.13256°
Mean motion
3.82791 °/min
Orbital period
94.05 mins
BSTAR
0.00025453
Loading maneuver chart data...
Computing Atmospheric mass density...
Loading historical data...
Loading historical data...
Loading historical data...
Loading historical data...
Loading historical data...
Loading historical data...
Loading historical data...

Documentation

Showing up to 5 results
|